• In Netherlands
  • List of Countries
  • For 7 days
  • Water Temperature
  • Satellite Maps
  • Weather Map
  • Weather Widgets
  • user-avatar
    Login

    Hourly Weather Kalat

    Today, 19 February, Sunday

    Time Temperature Precipitation Wind Pressure Humidity
    00:00 -9°C° 0.9 mm 4 mps 473 mmHg 91%
    01:00 -9°C° 0.9 mm 4 mps 473 mmHg 91%
    02:00 -9°C° 0.9 mm 4 mps 472 mmHg 92%
    03:00 -9°C° 0.9 mm 4 mps 472 mmHg 92%
    04:00 -10°C° 0.9 mm 4 mps 472 mmHg 92%
    05:00 -10°C° 0 mm 4 mps 472 mmHg 92%
    06:00 -10°C° 0.8 mm 4 mps 472 mmHg 92%
    07:00 -9°C° 0.8 mm 3 mps 472 mmHg 92%
    08:00 -10°C° 0.8 mm 3 mps 472 mmHg 91%
    09:00 -10°C° 0.6 mm 4 mps 472 mmHg 90%
    10:00 -10°C° 0.6 mm 4 mps 473 mmHg 89%
    11:00 -10°C° 0 mm 4 mps 473 mmHg 87%
    12:00 -10°C° 0.4 mm 4 mps 473 mmHg 88%
    13:00 -10°C° 0.4 mm 4 mps 473 mmHg 88%
    14:00 -10°C° 0.4 mm 4 mps 473 mmHg 89%
    15:00 -11°C° 0.3 mm 4 mps 472 mmHg 89%
    16:00 -12°C° 0.3 mm 4 mps 472 mmHg 89%
    17:00 -14°C° 0.3 mm 4 mps 471 mmHg 89%
    18:00 -15°C° 0.1 mm 3 mps 470 mmHg 90%
    19:00 -17°C° 0.1 mm 3 mps 468 mmHg 92%
    20:00 -19°C° 0.1 mm 2 mps 467 mmHg 93%
    21:00 -21°C° 0 mm 2 mps 465 mmHg 94%
    22:00 -24°C° 0 mm 2 mps 463 mmHg 94%
    23:00 -26°C° 0 mm 2 mps 461 mmHg 94%

    Tomorrow, 20 February, Monday

    Time Temperature Precipitation Wind Pressure Humidity
    00:00 -26°C° 0 mm 2 mps 461 mmHg 95%
    01:00 -27°C° 0 mm 2 mps 460 mmHg 95%
    02:00 -29°C° 0 mm 3 mps 460 mmHg 95%
    03:00 -30°C° 0 mm 3 mps 459 mmHg 94%
    04:00 -30°C° 0 mm 3 mps 459 mmHg 92%
    05:00 -31°C° 0 mm 3 mps 458 mmHg 91%
    06:00 -27°C° 0 mm 2 mps 460 mmHg 86%
    07:00 -25°C° 0 mm 2 mps 462 mmHg 81%
    08:00 -24°C° 0 mm 2 mps 463 mmHg 76%
    09:00 -21°C° 0 mm 3 mps 466 mmHg 64%
    10:00 -17°C° 0 mm 3 mps 468 mmHg 53%
    11:00 -13°C° 0 mm 3 mps 470 mmHg 42%
    12:00 -12°C° 0 mm 3 mps 470 mmHg 44%
    13:00 -12°C° 0 mm 3 mps 470 mmHg 46%
    14:00 -10°C° 0 mm 3 mps 470 mmHg 48%
    15:00 -12°C° 0 mm 3 mps 469 mmHg 53%
    16:00 -13°C° 0 mm 3 mps 469 mmHg 59%
    17:00 -14°C° 0 mm 3 mps 468 mmHg 65%
    18:00 -18°C° 0 mm 3 mps 465 mmHg 72%
    19:00 -21°C° 0 mm 2 mps 462 mmHg 80%
    20:00 -26°C° 0 mm 2 mps 459 mmHg 87%
    21:00 -27°C° 0 mm 2 mps 458 mmHg 84%
    22:00 -27°C° 0 mm 2 mps 458 mmHg 81%
    23:00 -28°C° 0 mm 2 mps 457 mmHg 77%

    Day after tomorrow, 21 February, Tuesday

    Time Temperature Precipitation Wind Pressure Humidity
    00:00 -28°C° 0 mm 2 mps 457 mmHg 73%
    01:00 -28°C° 0 mm 2 mps 457 mmHg 68%
    02:00 -29°C° 0 mm 2 mps 456 mmHg 63%
    03:00 -29°C° 0 mm 2 mps 456 mmHg 60%
    04:00 -29°C° 0 mm 2 mps 456 mmHg 56%
    05:00 -29°C° 0 mm 2 mps 455 mmHg 52%
    06:00 -27°C° 0 mm 2 mps 457 mmHg 50%
    07:00 -25°C° 0 mm 2 mps 459 mmHg 48%
    08:00 -23°C° 0 mm 2 mps 461 mmHg 46%
    09:00 -16°C° 0 mm 1 mps 464 mmHg 40%
    10:00 -13°C° 0 mm 1 mps 466 mmHg 35%
    11:00 -9°C° 0 mm 1 mps 469 mmHg 30%
    12:00 -9°C° 0 mm 1 mps 469 mmHg 34%
    13:00 -9°C° 0 mm 2 mps 469 mmHg 38%
    14:00 -9°C° 0 mm 2 mps 469 mmHg 42%
    15:00 -9°C° 0 mm 2 mps 468 mmHg 48%
    16:00 -10°C° 0 mm 2 mps 468 mmHg 54%
    17:00 -12°C° 0 mm 2 mps 468 mmHg 61%
    18:00 -14°C° 0 mm 1 mps 464 mmHg 71%
    19:00 -19°C° 0 mm 1 mps 460 mmHg 82%
    20:00 -23°C° 0 mm 0 mps 457 mmHg 93%
    21:00 -23°C° 0 mm 1 mps 457 mmHg 91%
    22:00 -23°C° 0 mm 1 mps 457 mmHg 89%
    23:00 -23°C° 0 mm 1 mps 458 mmHg 87%

    22 February, Wednesday

    Time Temperature Precipitation Wind Pressure Humidity
    00:00 -26°C° 0 mm 2 mps 458 mmHg 85%
    01:00 -26°C° 0 mm 2 mps 458 mmHg 83%
    02:00 -26°C° 0 mm 2 mps 458 mmHg 81%
    03:00 -26°C° 0 mm 2 mps 457 mmHg 79%
    04:00 -26°C° 0 mm 2 mps 457 mmHg 78%
    05:00 -26°C° 0 mm 2 mps 457 mmHg 76%
    06:00 -24°C° 0 mm 2 mps 459 mmHg 70%
    07:00 -21°C° 0 mm 2 mps 461 mmHg 64%
    08:00 -19°C° 0 mm 2 mps 463 mmHg 58%
    09:00 -16°C° 0 mm 2 mps 466 mmHg 52%
    10:00 -13°C° 0 mm 2 mps 468 mmHg 46%
    11:00 -8°C° 0 mm 2 mps 470 mmHg 41%
    12:00 -8°C° 0 mm 2 mps 470 mmHg 44%
    13:00 -9°C° 0 mm 3 mps 470 mmHg 46%
    14:00 -8°C° 0 mm 3 mps 470 mmHg 49%
    15:00 -9°C° 0 mm 3 mps 470 mmHg 55%
    16:00 -9°C° 0 mm 2 mps 470 mmHg 60%
    17:00 -9°C° 0 mm 2 mps 469 mmHg 65%
    18:00 -14°C° 0 mm 2 mps 467 mmHg 70%
    19:00 -17°C° 0 mm 2 mps 465 mmHg 74%
    20:00 -20°C° 0 mm 2 mps 463 mmHg 79%
    21:00 -20°C° 0 mm 2 mps 463 mmHg 79%
    22:00 -21°C° 0 mm 2 mps 463 mmHg 79%
    23:00 -23°C° 0 mm 3 mps 463 mmHg 79%

    23 February, Thursday

    Time Temperature Precipitation Wind Pressure Humidity
    00:00 -23°C° 0 mm 3 mps 463 mmHg 78%
    01:00 -23°C° 0 mm 2 mps 463 mmHg 78%
    02:00 -23°C° 0 mm 2 mps 462 mmHg 77%
    03:00 -24°C° 0 mm 2 mps 462 mmHg 78%
    04:00 -24°C° 0 mm 2 mps 462 mmHg 79%
    05:00 -24°C° 0 mm 2 mps 461 mmHg 79%
    06:00 -23°C° 0 mm 2 mps 463 mmHg 76%
    07:00 -20°C° 0 mm 2 mps 465 mmHg 73%
    08:00 -18°C° 0 mm 2 mps 467 mmHg 69%
    09:00 -15°C° 0 mm 2 mps 469 mmHg 62%
    10:00 -13°C° 0 mm 2 mps 471 mmHg 55%
    11:00 -9°C° 0 mm 2 mps 472 mmHg 48%
    12:00 -9°C° 0 mm 2 mps 473 mmHg 49%
    13:00 -8°C° 0 mm 2 mps 473 mmHg 51%
    14:00 -8°C° 0 mm 2 mps 473 mmHg 52%
    15:00 -8°C° 0 mm 2 mps 472 mmHg 55%
    16:00 -9°C° 0 mm 2 mps 472 mmHg 58%
    17:00 -9°C° 0 mm 2 mps 472 mmHg 62%
    18:00 -12°C° 0 mm 1 mps 469 mmHg 69%
    19:00 -15°C° 0 mm 1 mps 466 mmHg 77%
    20:00 -19°C° 0 mm 1 mps 463 mmHg 84%
    21:00 -19°C° 0 mm 1 mps 464 mmHg 83%
    22:00 -20°C° 0 mm 2 mps 465 mmHg 81%
    23:00 -20°C° 0 mm 2 mps 465 mmHg 80%

    24 February, Friday

    Time Temperature Precipitation Wind Pressure Humidity
    00:00 -20°C° 0 mm 2 mps 465 mmHg 77%
    01:00 -20°C° 0 mm 2 mps 465 mmHg 75%
    02:00 -19°C° 0 mm 2 mps 465 mmHg 73%
    03:00 -19°C° 0 mm 2 mps 465 mmHg 68%
    04:00 -20°C° 0 mm 2 mps 465 mmHg 63%
    05:00 -20°C° 0 mm 2 mps 465 mmHg 57%
    06:00 -18°C° 0 mm 2 mps 466 mmHg 53%
    07:00 -17°C° 0 mm 2 mps 468 mmHg 48%
    08:00 -15°C° 0 mm 2 mps 469 mmHg 43%
    09:00 -11°C° 0 mm 1 mps 471 mmHg 39%
    10:00 -8°C° 0 mm 1 mps 473 mmHg 36%
    11:00 -4°C° 0 mm 1 mps 475 mmHg 32%
    12:00 -4°C° 0 mm 1 mps 475 mmHg 35%
    13:00 -5°C° 0 mm 2 mps 475 mmHg 39%
    14:00 -5°C° 0 mm 2 mps 475 mmHg 42%
    15:00 -5°C° 0 mm 2 mps 474 mmHg 48%
    16:00 -5°C° 0 mm 2 mps 474 mmHg 54%
    17:00 -6°C° 0 mm 2 mps 474 mmHg 59%
    18:00 -7°C° 0 mm 2 mps 473 mmHg 63%
    19:00 -9°C° 0 mm 2 mps 472 mmHg 67%
    20:00 -10°C° 0 mm 2 mps 471 mmHg 70%
    21:00 -12°C° 0 mm 2 mps 471 mmHg 71%
    22:00 -12°C° 0 mm 2 mps 470 mmHg 71%
    23:00 -14°C° 0 mm 3 mps 470 mmHg 71%
    Show more